Location: Newark
(11.4947°N, 0.1467°E)
Time: 10:03:03
(UTC+00:00)

Hubble Space Telescope - Pass Details

Date: 19 November 2019
Orbit: 536 x 540 km, 28.5° (Epoch: 08 December)

Event Time Altitude Azimuth Distance (km) Brightness Sun altitude
Rises 17:59:35 0° 285° (WNW) 2,666 5.4 -7.2°
Reaches altitude 10° 18:02:48 10° 311° (NW) 1,777 3.9 -8.0°
Maximum altitude 18:04:59 14° 343° (NNW) 1,541 3.1 -8.5°
Drops below altitude 10° 18:07:10 10° 16° (NNE) 1,777 3.1 -9.0°
Enters shadow 18:08:41 - 31° (NNE) 2,148 3.4 -9.4°
